Location: Island Grove Observatory.
(44.2333°N, 79.4500°W)
Time: 12:03:52
(UTC-05:00)

N. Korean satellite - Pass Details

Date: 01 December 2021
Orbit: 447 x 491 km, 97.3° (Epoch: 23 January)

Event Time Altitude Azimuth Distance (km) Brightness Sun altitude
Rises 04:26:20 0° 35° (NE) 2,467 10.6 -32.8°
Maximum altitude 04:30:44 11° 90° (E) 1,532 9.9 -32.0°
Drops below altitude 10° 04:31:36 10° 105° (ESE) 1,575 10.0 -31.9°
Sets 04:35:06 0° 145° (SE) 2,436 10.6 -31.3°
